Home   Weather   Labrador City   Past weeks

Flag for Canada Past Weather in Labrador City, Newfoundland and Labrador, Canada — Yesterday and Last 2 Weeks

27 °F

Light snow. Mostly cloudy.

Feels Like: 15 °F
Forecast: N/A
Wind: 15 mph from Northeast

Location: Wabush Lake

Current Time: Oct 24, 2016 at 8:41:38 PM

Latest Report: Oct 24, 2016 at 8:00 PM

Visibility: 1 mi

Pressure: 29.72 "Hg (27.69 "Hg at 558m altitude)

Humidity: 93%

Dew Point: 25 °F

Location of Labrador CityLocation

Past Weather in Labrador City — Graph


Labrador City Temperature Yesterday

Maximum temperature yesterday: 34 °F (at 1:00 PM)
Minimum temperature yesterday: 30 °F (at 12:04 AM)
Average temperature yesterday: 32 °F

High & Low Weather Summary for the Past Weeks

High59 °F (Oct 12, 3:00 PM)100% (Oct 18, 6:50 PM)30.36 "Hg (Oct 18, 6:50 PM)
Low23 °F (Oct 11, 1:00 AM)39% (Oct 12, 5:00 PM)29.16 "Hg (Oct 24, 1:00 AM)
Average35 °F86%29.89 "Hg
* Reported Oct 9 7:00 PM — Oct 24 7:00 PM, Labrador City, Weather by CustomWeather, © 2016

Note: Actual official high and low records may vary slightly from our data, if they occured in-between our weather recording intervals... More about our weather records


Labrador City Weather History for the Previous 24 Hours

Scroll right to see more
Time TempWeatherWind HumidityBarometerVisibility
7:00 PM
Mon, Oct 24
27 °FLight snow. Mostly cloudy.21 mph93%29.67 "Hg2 mi
6:00 PM28 °FLight snow. Overcast.15 mph93%29.63 "Hg1 mi
5:00 PM28 °FLight snow. Overcast.18 mph93%29.59 "Hg1 mi
4:00 PM28 °FLight snow. Overcast.21 mph93%29.54 "Hg1 mi
3:00 PM30 °FLight snow. Mostly cloudy.18 mph93%29.50 "Hg1 mi
2:00 PM30 °FSnow. Ice fog.17 mph93%29.46 "Hg1 mi
1:00 PM30 °FLight snow. Ice fog.20 mph93%29.43 "Hg1 mi
12:47 PM30 °FLight snow. Ice fog.21 mph93%29.42 "Hg1 mi
12:00 PM30 °FLight snow. Ice fog.17 mph93%29.40 "Hg1 mi
11:00 AM30 °FLight snow. Overcast.16 mph93%29.37 "Hg1 mi
10:00 AM30 °FLight snow. Ice fog.17 mph93%29.34 "Hg1 mi
9:00 AM30 °FLight snow. Overcast.14 mph93%29.31 "Hg1 mi
8:00 AM30 °FLight snow. Overcast.17 mph93%29.28 "Hg1 mi
7:00 AM30 °FLight snow. Overcast.16 mph93%29.25 "Hg2 mi
6:51 AM30 °FLight snow. Overcast.16 mph93%29.25 "Hg2 mi
6:00 AM30 °FLight snow. Overcast.15 mph93%29.23 "Hg1 mi
5:00 AM30 °FLight snow. Overcast.17 mph93%29.21 "Hg1 mi
4:00 AM30 °FLight snow. Ice fog.15 mph100%29.19 "Hg1 mi
3:00 AM32 °FLight snow. Dense fog.16 mph93%29.18 "Hg1 mi
2:00 AM32 °FLight snow. Dense fog.14 mph93%29.17 "Hg1 mi
1:00 AM32 °FLight snow. Dense fog.13 mph93%29.16 "Hg1 mi
12:00 AM32 °FLight snow. Dense fog.13 mph100%29.17 "Hg1 mi
11:00 PM
Sun, Oct 23
32 °FLight snow. Overcast.13 mph100%29.18 "Hg1 mi
10:59 PM32 °FLight snow. Overcast.14 mph100%29.18 "Hg1 mi
10:00 PM32 °FLight snow. Dense fog.10 mph100%29.19 "Hg1 mi
9:00 PM32 °FLight snow. Dense fog.9 mph100%29.21 "Hg1 mi
8:00 PM32 °FLight snow. Mostly cloudy.9 mph100%29.22 "Hg1 mi
Weather by CustomWeather, © 2016

See weather overviewHow to use our weather pages